Location: Banios
(43.0451°N, 0.2335°E)
Time: 04:31:16
(UTC+00:00)

Cosmos 2098 Rocket - Pass Details

Date: 25 January 2021
Orbit: 366 x 1182 km, 82.9° (Epoch: 26 February)

Event Time Altitude Azimuth Distance (km) Brightness Sun altitude
Rises 05:55:13 0° 352° (N) 3,664 6.8 -15.7°
Reaches altitude 10° 05:58:00 10° 353° (N) 2,588 6.0 -15.2°
Maximum altitude 06:03:51 83° 82° (E) 766 3.5 -14.1°
Drops below altitude 10° 06:08:23 10° 171° (S) 2,025 6.0 -13.3°
Sets 06:10:21 0° 172° (S) 2,814 6.7 -13.0°
